GLOBALSTAR M014 [-]

Last updated on Thu Dec 28 2023 00:02:57 GMT+0000 (Coordinated Universal Time)

1 25306U 98023A 23361.56157382 -.00000064 00000+0 24640-3 0 9999 2 25306 51.9849 82.7210 0001462 110.7378 353.1185 11.65463464128483

Satellite not in orbit

GLOBALSTAR M014 [-]